World > North America > United States > New York
Hourly Weather in Tioga Center, New YorkTioga Center, New York Hourly Weather

Tioga Center, NY Hourly Weather

Hourly Weather Tioga Center, New YorkHourly Weather in Tioga Center, NY
Lat: 42.07N, Lon: 76.35W  ICAO: KBGM
Web Search
Tioga Center Weather Warning NWS WEATHER ALERT FOR THE TIOGA CENTER, NY AREA - WIND ADVISORY Issued: 347 AM EST Mon Dec 6 2021 Tioga Center Weather Warning  

Helpful Tip: Abbreviated, 7 Day, 14 Day Forecasts. There is a weather forecast for every taste.

Feedback

Tioga Center Hourly Weather

36 Hour Weather Scroll   °F Click to change Tioga Center hourly weather to Imperial units.Click to change Tioga Center hourly weather to Metric units. °C
Currently, Overcast, temperature is 46°F8°C, dew point 43°F6°C, humidity 89%. Wind direction is S at 14 mph23 km/h with visibility of 10.00 mi16 km. Barometric pressure is 29.74 in1007 mb.

Dec 06
9:00 AM

Dec 06
10:00 AM

Dec 06
11:00 AM

Dec 06
NOON

Dec 06
1:00 PM

Dec 06
2:00 PM

Dec 06
3:00 PM

Dec 06
4:00 PM

Dec 06
5:00 PM

Dec 06
6:00 PM

Dec 06
7:00 PM

Dec 06
8:00 PM

Dec 06
9:00 PM

Dec 06
10:00 PM

Dec 06
11:00 PM

Dec 07
MIDNIGHT

Dec 07
1:00 AM

Dec 07
2:00 AM

Dec 07
3:00 AM

Dec 07
4:00 AM

Dec 07
5:00 AM

Dec 07
6:00 AM

Dec 07
7:00 AM

Dec 07
8:00 AM

Dec 07
9:00 AM

Dec 07
10:00 AM

Dec 07
11:00 AM

Dec 07
NOON

Dec 07
1:00 PM

Dec 07
2:00 PM

Dec 07
3:00 PM

Dec 07
4:00 PM

Dec 07
5:00 PM

Dec 07
6:00 PM

Dec 07
7:00 PM

Dec 07
8:00 PM
Cloudy Cloudy Cloudy Cloudy Cloudy Cloudy Cloudy Cloudy Cloudy Cloudy Cloudy Cloudy Mostly Cloudy Mostly Cloudy Mostly Cloudy Cloudy Cloudy Cloudy Cloudy Cloudy Cloudy Mostly Cloudy Mostly Cloudy Mostly Cloudy Cloudy Cloudy Cloudy Cloudy Cloudy Cloudy Cloudy Cloudy Cloudy Mostly Cloudy Mostly Cloudy Mostly Cloudy
Cloudy Cloudy Cloudy Cloudy Cloudy Cloudy Cloudy Cloudy Cloudy Cloudy Cloudy Cloudy Mostly Cloudy Mostly Cloudy Mostly Cloudy Cloudy Cloudy Cloudy Cloudy Cloudy Cloudy Mostly Cloudy Mostly Cloudy Mostly Cloudy Cloudy Cloudy Cloudy Cloudy Cloudy Cloudy Cloudy Cloudy Cloudy Mostly Cloudy Mostly Cloudy Mostly Cloudy
45°F7°C 46°F8°C 46°F8°C 45°F7°C 45°F7°C 44°F7°C 42°F6°C 41°F5°C 39°F4°C 36°F2°C 34°F1°C 33°F1°C 32°F0°C 31°F-1°C 31°F-1°C 30°F-1°C 30°F-1°C 29°F-2°C 28°F-2°C 27°F-3°C 26°F-3°C 25°F-4°C 24°F-4°C 25°F-4°C 26°F-3°C 27°F-3°C 28°F-2°C 28°F-2°C 29°F-2°C 29°F-2°C 29°F-2°C 29°F-2°C 28°F-2°C 26°F-3°C 25°F-4°C 24°F-4°C
Rain Rain Rain Rain Rain Rain Rain Rain Rain Rain Rain - - - - - - - - - - - - - - - - - - - - - - - - -
53% 53% 53% 53% 53% 82% 82% 82% 82% 82% 82% 19% 19% 19% 19% 19% 19% 2% 2% 2% 2% 2% 2% 5% 5% 5% 5% 5% 5% 0% 0% 0% 0% 0% 0% 7%
42°F6°C 43°F6°C 42°F6°C 41°F5°C 40°F4°C 38°F3°C 36°F2°C 34°F1°C 32°F0°C 31°F-1°C 29°F-2°C 27°F-3°C 26°F-3°C 24°F-4°C 23°F-5°C 22°F-6°C 21°F-6°C 20°F-7°C 20°F-7°C 19°F-7°C 18°F-8°C 17°F-8°C 16°F-9°C 16°F-9°C 15°F-9°C 15°F-9°C 14°F-10°C 14°F-10°C 13°F-11°C 12°F-11°C 12°F-11°C 11°F-12°C 11°F-12°C 11°F-12°C 11°F-12°C 11°F-12°C
89% 89% 86% 86% 83% 79% 79% 76% 76% 82% 82% 78% 78% 75% 72% 72% 69% 69% 72% 71% 71% 71% 71% 68% 63% 60% 55% 55% 51% 48% 48% 46% 48% 52% 55% 57%
S S S S S SW SW SSW SSW SSW W W W W W W W W W W W W W W W W W W W W WNW WNW WNW WNW WNW W
15 mph 15 mph 15 mph 19 mph 19 mph 19 mph 15 mph 15 mph 15 mph 18 mph 18 mph 18 mph 18 mph 18 mph 18 mph 16 mph 16 mph 16 mph 13 mph 13 mph 13 mph 10 mph 10 mph 10 mph 11 mph 11 mph 11 mph 11 mph 11 mph 11 mph 8 mph 8 mph 8 mph 4 mph 4 mph 4 mph
10 mi16 km 10 mi16 km 10 mi16 km 6 mi10 km 6 mi10 km 6 mi10 km 5 mi8 km 5 mi8 km 6 mi10 km 6 mi10 km 10 mi16 km 10 mi16 km 10 mi16 km 10 mi16 km 10 mi16 km 10 mi16 km 10 mi16 km 10 mi16 km 10 mi16 km 10 mi16 km 10 mi16 km 10 mi16 km 10 mi16 km 10 mi16 km 10 mi16 km 10 mi16 km 10 mi16 km 10 mi16 km 10 mi16 km 10 mi16 km 10 mi16 km 10 mi16 km 10 mi16 km 10 mi16 km 10 mi16 km 10 mi16 km
Hour (EST)
Weather
Clouds
Temperature
Precip. Type
POP
Dewpoint
Humidity
Wind Direction
Wind Speed
Visibility
POP = Probability of Precipitation. ** Indicates missing data/values from model statistics.

24 Hour Forecast

Rest of Today - Showers. Highs in the mid 50s. South winds 15 to 20 mph. Gusts up to 30 mph, increasing to 40 mph this afternoon. Chance of rain near 100%.
Tonight - A chance of rain showers in the evening. Partly cloudy with a slight chance of snow showers. Lows in the mid 20s. West winds 15 to 20 mph with gusts up to 40 mph. Chance of precipitation 50%.

48 Hour Forecast API Feed


Mon, Dec 6
9:00 am

Mon, Dec 6
10:00 am

Mon, Dec 6
11:00 am

Mon, Dec 6
Noon

Mon, Dec 6
1:00 pm

Mon, Dec 6
2:00 pm

Mon, Dec 6
3:00 pm

Mon, Dec 6
4:00 pm

Mon, Dec 6
5:00 pm

Mon, Dec 6
6:00 pm

Mon, Dec 6
7:00 pm

Mon, Dec 6
8:00 pm

Mon, Dec 6
9:00 pm

Mon, Dec 6
10:00 pm

Mon, Dec 6
11:00 pm

Tue, Dec 7
Midnight

Tue, Dec 7
1:00 am

Tue, Dec 7
2:00 am

Tue, Dec 7
3:00 am

Tue, Dec 7
4:00 am

Tue, Dec 7
5:00 am

Tue, Dec 7
6:00 am

Tue, Dec 7
7:00 am

Tue, Dec 7
8:00 am

Tue, Dec 7
9:00 am

Tue, Dec 7
10:00 am

Tue, Dec 7
11:00 am

Tue, Dec 7
Noon

Tue, Dec 7
1:00 pm

Tue, Dec 7
2:00 pm

Tue, Dec 7
3:00 pm

Tue, Dec 7
4:00 pm

Tue, Dec 7
5:00 pm

Tue, Dec 7
6:00 pm

Tue, Dec 7
7:00 pm

Tue, Dec 7
8:00 pm

Tue, Dec 7
9:00 pm

Tue, Dec 7
10:00 pm

Tue, Dec 7
11:00 pm

Wed, Dec 8
Midnight

Wed, Dec 8
1:00 am

Wed, Dec 8
2:00 am

Wed, Dec 8
3:00 am

Wed, Dec 8
4:00 am

Wed, Dec 8
5:00 am

Wed, Dec 8
6:00 am

Wed, Dec 8
7:00 am

Wed, Dec 8
8:00 am
OvercastOvercastPatchy Rain PossiblePatchy Rain PossiblePatchy Rain PossibleLight RainLight DrizzleLight DrizzleLight RainLight DrizzleLight DrizzleBlizzardClearCloudyLight SnowOvercastLight Snow ShowersModerate Or Heavy Snow ShowersLight SnowLight SnowLight Snow ShowersLight Snow ShowersLight Snow ShowersPatchy Snow PossibleSunnyCloudyOvercastCloudyPartly CloudyOvercastOvercastOvercastOvercastCloudyPartly CloudyPartly CloudyOvercastOvercastOvercastOvercastOvercastOvercastModerate SnowModerate SnowHeavy SnowModerate SnowModerate SnowHeavy Snow
Overcast Overcast Patchy rain possible Patchy rain possible Patchy rain possible Light rain Light drizzle Light drizzle Light rain Light drizzle Light drizzle Blizzard Clear Cloudy Light snow Overcast Light snow showers Moderate snow showers Light snow Light snow Light snow showers Light snow showers Light snow showers Patchy snow possible Sunny Cloudy Overcast Cloudy Partly cloudy Overcast Overcast Overcast Overcast Cloudy Partly cloudy Partly cloudy Overcast Overcast Overcast Overcast Overcast Overcast Moderate snow Moderate snow Heavy snow Moderate snow Moderate snow Heavy snow
47°F
9°C
48°F
9°C
49°F
9°C
49°F
10°C
51°F
10°C
52°F
11°C
53°F
12°C
52°F
11°C
50°F
10°C
45°F
7°C
42°F
6°C
37°F
3°C
35°F
2°C
33°F
0°C
32°F
0°C
31°F
-1°C
30°F
-1°C
30°F
-1°C
29°F
-2°C
28°F
-3°C
28°F
-2°C
28°F
-3°C
27°F
-3°C
27°F
-3°C
27°F
-3°C
28°F
-2°C
30°F
-1°C
31°F
-1°C
32°F
-0°C
32°F
-0°C
32°F
0°C
32°F
0°C
32°F
-0°C
30°F
-1°C
29°F
-2°C
29°F
-2°C
29°F
-2°C
29°F
-2°C
29°F
-1°C
29°F
-2°C
26°F
-4°C
25°F
-4°C
24°F
-4°C
25°F
-4°C
24°F
-4°C
24°F
-5°C
24°F
-5°C
24°F
-4°C
46°F
8°C
46°F
8°C
46°F
8°C
46°F
8°C
46°F
8°C
48°F
9°C
48°F
9°C
48°F
9°C
48°F
9°C
40°F
5°C
34°F
1°C
25°F
-4°C
24°F
-4°C
24°F
-5°C
22°F
-5°C
22°F
-6°C
21°F
-6°C
21°F
-6°C
20°F
-7°C
19°F
-7°C
19°F
-8°C
18°F
-8°C
18°F
-8°C
18°F
-8°C
18°F
-8°C
16°F
-9°C
15°F
-9°C
15°F
-10°C
14°F
-10°C
13°F
-10°C
14°F
-10°C
15°F
-10°C
16°F
-9°C
17°F
-9°C
17°F
-8°C
17°F
-8°C
18°F
-8°C
18°F
-8°C
17°F
-8°C
17°F
-8°C
17°F
-8°C
20°F
-7°C
22°F
-6°C
22°F
-6°C
20°F
-7°C
19°F
-7°C
19°F
-7°C
19°F
-7°C
29.77 in
1008 mb
29.74 in
1007 mb
29.68 in
1005 mb
29.65 in
1004 mb
29.59 in
1002 mb
29.53 in
1000 mb
29.5 in
999 mb
29.56 in
1001 mb
29.59 in
1002 mb
29.68 in
1005 mb
29.74 in
1007 mb
29.8 in
1009 mb
29.85 in
1011 mb
29.88 in
1012 mb
29.88 in
1012 mb
29.91 in
1013 mb
29.94 in
1014 mb
29.97 in
1015 mb
30 in
1016 mb
30.06 in
1018 mb
30.06 in
1018 mb
30.12 in
1020 mb
30.12 in
1020 mb
30.15 in
1021 mb
30.18 in
1022 mb
30.21 in
1023 mb
30.24 in
1024 mb
30.24 in
1024 mb
30.21 in
1023 mb
30.21 in
1023 mb
30.18 in
1022 mb
30.18 in
1022 mb
30.21 in
1023 mb
30.21 in
1023 mb
30.21 in
1023 mb
30.24 in
1024 mb
30.24 in
1024 mb
30.24 in
1024 mb
30.24 in
1024 mb
30.21 in
1023 mb
30.21 in
1023 mb
30.18 in
1022 mb
30.18 in
1022 mb
30.18 in
1022 mb
30.15 in
1021 mb
30.12 in
1020 mb
30.12 in
1020 mb
30.12 in
1020 mb
94%92%90%90%86%86%82%87%90%83%73%63%65%70%66%68%69%70%69%69%67%67%67%68%67%60%54%51%48%46%46%47%51%58%61%60%61%62%60%62%69%82%89%89%85%83%82%81%
SSSSSSSWSSWSWWSWWWWWWWWWWNWWNWWNWWNWWNWWNWWNWWNWWNWWWWWWWWNWWNWWWNWWWNWNWSSESSWSSSESSESESESESE
15 mph
24 km/h
16 mph
26 km/h
16 mph
25 km/h
18 mph
28 km/h
19 mph
31 km/h
19 mph
31 km/h
20 mph
33 km/h
19 mph
30 km/h
15 mph
23 km/h
17 mph
27 km/h
18 mph
28 km/h
18 mph
30 km/h
17 mph
27 km/h
15 mph
25 km/h
16 mph
26 km/h
16 mph
26 km/h
15 mph
24 km/h
15 mph
24 km/h
14 mph
22 km/h
14 mph
22 km/h
13 mph
21 km/h
12 mph
20 km/h
11 mph
17 km/h
10 mph
16 km/h
9 mph
14 km/h
10 mph
16 km/h
11 mph
17 km/h
10 mph
17 km/h
11 mph
18 km/h
10 mph
17 km/h
10 mph
15 km/h
9 mph
14 km/h
7 mph
11 km/h
4 mph
7 km/h
4 mph
6 km/h
3 mph
5 km/h
2 mph
3 km/h
2 mph
3 km/h
1 mph
1 km/h
0 mph
1 km/h
2 mph
4 km/h
3 mph
4 km/h
3 mph
5 km/h
3 mph
5 km/h
3 mph
5 km/h
4 mph
6 km/h
5 mph
8 km/h
5 mph
8 km/h
0%0%76%73%61%94%93%83%93%92%60%78%0%0%0%0%0%0%0%0%0%0%0%0%0%0%0%0%0%0%0%0%0%0%0%0%0%0%0%0%0%0%0%0%0%0%0%0%
6 mi
10 km
6 mi
10 km
6 mi
10 km
6 mi
10 km
6 mi
10 km
6 mi
9 km
1 mi
2 km
1 mi
2 km
6 mi
9 km
1 mi
2 km
1 mi
2 km
0 mi
0 km
6 mi
10 km
6 mi
10 km
6 mi
10 km
6 mi
10 km
6 mi
10 km
4 mi
7 km
6 mi
10 km
6 mi
10 km
6 mi
10 km
6 mi
10 km
6 mi
10 km
6 mi
9 km
6 mi
10 km
6 mi
10 km
6 mi
10 km
6 mi
10 km
6 mi
10 km
6 mi
10 km
6 mi
10 km
6 mi
10 km
6 mi
10 km
6 mi
10 km
6 mi
10 km
6 mi
10 km
6 mi
10 km
6 mi
10 km
6 mi
10 km
6 mi
10 km
6 mi
10 km
6 mi
10 km
3 mi
5 km
3 mi
5 km
1 mi
2 km
3 mi
5 km
3 mi
5 km
1 mi
2 km

Day/Time
Weather
Condition
Temperature
Dew Point
Pressure
Humidity
Wind Direction
Wind Speed
Prob Precip %
Visibility
Prob Precip % = Probability of Precipitation.